[[{"header":{"parameterUnit":"m.s-1","parameterCategory":1,"la1":30.2991,"la2":30.254,"lo1":-89.0895,"lo2":-89.0444,"dy":0.0017,"dx":0.0017,"nx":28,"ny":28,"refTime":"2024-03-19T03:00:00:Z","depth":0,"parameterNumber":2,"parameterNumberName":"U-component_of_WINDS"},"data":[0,0,0,0,0,0,0,0,0,0,0,0,0,0,0,0,0,0,0,0,0,0,0,0,0,0,0,0,0,0,0,0,0,0,0,0,0,0,0,0,0,0,0,0,0,0,0,0,0,0,0,0,0,0,0,0,0,0,0.6763,0.6764,0,0.6853,0.6854,0.6855,0.6924,0.6924,0.6925,0.6926,0.7019,0.702,0.7022,0,0,0,0,0,0,0,0,0,0,0,0,0,0.6649,0.665,0.6763,0.6764,0.6765,0.6853,0.6854,0.6856,0.6924,0.6925,0.6925,0.6926,0.7018,0.702,0.7022,0,0,0,0,0,0,0,0,0,0,0,0,0,0.6715,0.6651,0.6762,0.681,0.6815,0.6853,0.6854,0.6856,0.6924,0.6925,0.6925,0.6926,0.7017,0.702,0.7023,0.7021,0,0,0.7031,0.7033,0,0,0,0,0,0,0,0,0.6711,0.6719,0.6801,0.6806,0.6812,0.6878,0.6848,0.6911,0.6923,0.6882,0.6926,0.6927,0.6971,0.6978,0.6993,0.7026,0.703,0.7032,0.7033,0.7035,0.7035,0,0,0,0,0,0,0,0.6706,0.6715,0.6799,0.6803,0.6809,0.6826,0.6837,0.6861,0.692,0.6886,0.6891,0.6901,0.6974,0.699,0.6995,0.7031,0.7032,0.7034,0.7036,0.7037,0.7067,0.7066,0,0,0,0,0,0,0.6694,0.6711,0.6796,0.6801,0.6763,0.6827,0.6839,0.6856,0.692,0.6931,0.69,0.6904,0.6985,0.6992,0.6999,0.7001,0.7035,0.7037,0.7039,0.7068,0.7067,0.7066,0,0,0,0,0,0,0.6692,0.6701,0.6792,0.6758,0.677,0.6828,0.6847,0.6857,0.6873,0.6931,0.6942,0.6905,0.6986,0.6995,0.7015,0.7005,0.7039,0.7041,0.7069,0.7068,0.7067,0.7005,0,0,0,0,0,0,0.6688,0.67,0.67,0.6757,0.6772,0.6806,0.6846,0.6858,0.6878,0.6883,0.6938,0.6948,0.6987,0.7011,0.7018,0.701,0.7043,0.707,0.7069,0.7067,0.7008,0.7002,0.6996,0,0,0,0,0,0.6684,0.6679,0.6699,0.6709,0.6773,0.6806,0.6814,0.6859,0.6877,0.6877,0.6914,0.6947,0.7005,0.7012,0.7021,0.7013,0.7071,0.7069,0.7067,0.7011,0.7003,0.6997,0,0,0,0,0,0,0.6619,0.6687,0.6711,0.6725,0.6759,0.6817,0.6819,0.6849,0.6879,0.6883,0.6937,0.6949,0.6963,0.6991,0.6997,0.7015,0.7042,0.7042,0.6997,0.699,0.6984,0.6976,0.7046,0,0,0,0,0,0.6607,0.6627,0.6686,0.6692,0.6708,0.6761,0.6777,0.6808,0.6846,0.686,0.6899,0.6934,0.6961,0.6977,0.7005,0.7013,0.7026,0.7012,0.7006,0.7001,0.7,0.7006,0.7,0.7059,0.7059,0.706,0,0,0.6581,0.6621,0.663,0.668,0.6711,0.6731,0.6772,0.6792,0.6807,0.6863,0.6885,0.6914,0.6957,0.6971,0.6979,0.6994,0.6986,0.6999,0.6994,0.6996,0.7003,0.6997,0.6992,0.7058,0.7058,0.7059,0,0,0.6543,0.6576,0.6585,0.6614,0.6659,0.6694,0.6696,0.675,0.6772,0.6794,0.6836,0.6856,0.69,0.6929,0.6949,0.6923,0.6953,0.693,0.6899,0.6903,0.6899,0.6895,0.6884,0.688,0.6929,0.6929,0.6929,0,0.6505,0.6537,0.6585,0.6602,0.6623,0.6675,0.6684,0.671,0.6762,0.6775,0.6791,0.6847,0.688,0.6901,0.6895,0.691,0.6913,0.6924,0.6896,0.6892,0.6889,0.688,0.6876,0.6926,0.6926,0.6926,0.6927,0,0.6488,0.6509,0.6511,0.6559,0.658,0.6593,0.6643,0.6658,0.6688,0.6721,0.6742,0.6784,0.682,0.6828,0.6857,0.6853,0.6861,0.6885,0.6914,0.6879,0.6871,0.6868,0.6921,0.6922,0.6923,0.6924,0,0,0.6412,0.6487,0.6486,0.6509,0.6562,0.658,0.6595,0.6631,0.6642,0.6677,0.669,0.6727,0.675,0.6773,0.6806,0.681,0.6785,0.6835,0.6837,0.6823,0.6782,0.6762,0.6757,0.6807,0.6806,0.6806,0.6778,0,0.6382,0.6412,0.6455,0.6471,0.6491,0.654,0.6554,0.6588,0.6619,0.6641,0.6676,0.67,0.6729,0.6743,0.675,0.6787,0.6778,0.679,0.6819,0.6819,0.6805,0.6753,0.6732,0.6704,0.6775,0.6775,0.6775,0,0.6351,0.6382,0.6399,0.6451,0.6461,0.6472,0.6508,0.6528,0.6568,0.659,0.6616,0.6651,0.667,0.6696,0.6721,0.6728,0.6743,0.6763,0.6763,0.6766,0.6794,0.6754,0.6696,0.6691,0.677,0.6771,0.6771,0,0.6292,0.6339,0.6354,0.6372,0.6433,0.644,0.6465,0.6506,0.6525,0.6556,0.6569,0.6602,0.662,0.6644,0.6688,0.6703,0.6708,0.6738,0.6727,0.6726,0.6725,0.6724,0.6667,0.6736,0.6736,0.6736,0.6736,0,0.6254,0.6262,0.6329,0.6338,0.6349,0.6399,0.6408,0.6439,0.6475,0.6491,0.6536,0.6551,0.6608,0.6629,0.6663,0.6678,0.6687,0.6705,0.6714,0.67,0.6697,0.6709,0.6712,0.6735,0.6735,0.6736,0.6736,0,0.6189,0.6235,0.6255,0.6311,0.6326,0.6331,0.6379,0.639,0.6424,0.6444,0.6452,0.6505,0.6532,0.6578,0.6619,0.6642,0.665,0.6666,0.6636,0.6641,0.6626,0.6627,0.6574,0.657,0.6642,0.6642,0.6641,0,0.6161,0.6168,0.6225,0.6239,0.6263,0.6286,0.6305,0.6355,0.6373,0.6418,0.6424,0.6454,0.6481,0.6522,0.6564,0.6595,0.6611,0.6591,0.6616,0.6602,0.6609,0.6607,0.6608,0.6584,0.6583,0.6582,0.6582,0,0.6106,0.6128,0.6153,0.6186,0.6208,0.6236,0.6267,0.6276,0.6333,0.6351,0.6379,0.64,0.6441,0.647,0.6507,0.6534,0.6566,0.6574,0.6572,0.6558,0.6539,0.6548,0.6619,0.6574,0.6575,0.6576,0.6576,0.6576,0.6058,0.6066,0.6107,0.6134,0.6163,0.619,0.6203,0.6239,0.6263,0.63,0.6329,0.6354,0.6394,0.6447,0.6472,0.6492,0.6507,0.6506,0.6505,0.6504,0.6498,0.6537,0.6499,0.65,0.65,0.65,0.65,0,0.6004,0.6033,0.6057,0.6098,0.6119,0.6149,0.6185,0.62,0.6222,0.6256,0.6282,0.6314,0.6342,0.6387,0.6419,0.6427,0.6443,0.6433,0.6432,0.6438,0.6483,0.648,0.642,0.642,0.642,0.642,0.642,0.642,0.5978,0.5993,0.602,0.605,0.608,0.6105,0.6122,0.6148,0.6176,0.6209,0.6233,0.6262,0.63,0.6335,0.6362,0.6375,0.6384,0.6369,0.6386,0.6427,0.6435,0.6442,0.6439,0.6371,0.6371,0.6339,0.6339,0.6339]},{"header":{"parameterUnit":"m.s-1","parameterCategory":1,"la1":30.2991,"la2":30.254,"lo1":-89.0895,"lo2":-89.0444,"dy":0.0017,"dx":0.0017,"nx":28,"ny":28,"refTime":"2024-03-19T03:00:00:Z","depth":0,"parameterNumber":3,"parameterNumberName":"V-component_of_WINDS"},"data":[0,0,0,0,0,0,0,0,0,0,0,0,0,0,0,0,0,0,0,0,0,0,0,0,0,0,0,0,0,0,0,0,0,0,0,0,0,0,0,0,0,0,0,0,0,0,0,0,0,0,0,0,0,0,0,0,0,0,0.8604,0.8604,0,0.8562,0.8561,0.8561,0.8552,0.8552,0.8552,0.8553,0.8508,0.8506,0.8505,0,0,0,0,0,0,0,0,0,0,0,0,0,0.8674,0.8673,0.8604,0.8604,0.8603,0.8562,0.8561,0.8561,0.8552,0.8552,0.8553,0.8553,0.8508,0.8506,0.8505,0,0,0,0,0,0,0,0,0,0,0,0,0,0.8639,0.8672,0.8604,0.8594,0.8592,0.8562,0.8561,0.8561,0.8552,0.8552,0.8553,0.8553,0.8509,0.8507,0.8504,0.8481,0,0,0.8497,0.8497,0,0,0,0,0,0,0,0,0.8641,0.8636,0.8596,0.8594,0.8593,0.8563,0.8569,0.8534,0.8552,0.8567,0.8553,0.8553,0.8525,0.8522,0.8513,0.8479,0.8477,0.8497,0.8496,0.8495,0.8494,0,0,0,0,0,0,0,0.8643,0.8638,0.8587,0.8595,0.8593,0.859,0.8586,0.8563,0.8544,0.8566,0.8565,0.856,0.8525,0.8515,0.8512,0.8476,0.8497,0.8495,0.8494,0.8493,0.8419,0.8418,0,0,0,0,0,0,0.8648,0.864,0.8589,0.8586,0.8619,0.8588,0.8583,0.8572,0.8544,0.8541,0.856,0.856,0.8519,0.8514,0.851,0.8479,0.8495,0.8493,0.8492,0.8419,0.8419,0.8418,0,0,0,0,0,0,0.8649,0.8643,0.859,0.8613,0.8606,0.8587,0.8574,0.8571,0.8561,0.854,0.8536,0.8554,0.8519,0.8513,0.8488,0.8478,0.8492,0.849,0.842,0.8419,0.8418,0.8419,0,0,0,0,0,0,0.8652,0.8644,0.8636,0.8613,0.8605,0.857,0.8573,0.857,0.8557,0.8557,0.8533,0.8529,0.8519,0.8491,0.8486,0.8475,0.8488,0.8421,0.842,0.8418,0.8419,0.8418,0.8416,0,0,0,0,0,0.8654,0.8638,0.8635,0.8629,0.8594,0.8569,0.8565,0.8553,0.8557,0.8548,0.8534,0.853,0.848,0.8489,0.8482,0.8471,0.8421,0.842,0.8419,0.842,0.8418,0.8416,0,0,0,0,0,0,0.866,0.8635,0.8632,0.8608,0.8591,0.8568,0.8556,0.8552,0.8533,0.8534,0.852,0.8514,0.8489,0.8478,0.8488,0.8445,0.8451,0.8448,0.8454,0.8452,0.845,0.8453,0.8486,0,0,0,0,0,0.8659,0.8641,0.862,0.8601,0.8592,0.8576,0.8564,0.8557,0.8539,0.8531,0.8516,0.8497,0.8477,0.8464,0.8444,0.8418,0.8411,0.8406,0.8405,0.8404,0.8401,0.8384,0.8381,0.8413,0.8413,0.8413,0,0,0.8655,0.8639,0.8629,0.8601,0.8587,0.8568,0.857,0.855,0.8536,0.8528,0.8503,0.8491,0.8469,0.8442,0.843,0.8432,0.8391,0.8402,0.8401,0.8399,0.8382,0.8379,0.8377,0.8412,0.8412,0.8413,0,0,0.8639,0.8626,0.8608,0.8594,0.8572,0.8561,0.8557,0.8534,0.8526,0.85,0.8493,0.8476,0.8442,0.8426,0.8414,0.839,0.8385,0.8384,0.8376,0.8359,0.8357,0.8354,0.8344,0.8341,0.8382,0.8382,0.8382,0,0.8638,0.861,0.8599,0.8579,0.8566,0.8559,0.8539,0.8525,0.8499,0.8489,0.8492,0.8448,0.8433,0.8402,0.8396,0.8387,0.838,0.8386,0.8358,0.8356,0.8353,0.8343,0.8339,0.8382,0.8382,0.8382,0.8382,0,0.8608,0.8589,0.8577,0.8551,0.8536,0.8517,0.8501,0.8488,0.8481,0.847,0.8443,0.8424,0.84,0.8392,0.8386,0.8359,0.8361,0.8361,0.8366,0.835,0.834,0.8336,0.8381,0.8381,0.8381,0.8381,0,0,0.8596,0.8563,0.8558,0.8545,0.8521,0.8505,0.8484,0.846,0.8448,0.843,0.8411,0.8382,0.8381,0.8367,0.8359,0.8344,0.8324,0.8346,0.8345,0.8341,0.8291,0.829,0.8286,0.8321,0.8321,0.832,0.8292,0,0.8576,0.8539,0.8527,0.8496,0.8477,0.8469,0.845,0.8432,0.842,0.8401,0.8388,0.8366,0.8369,0.8359,0.8345,0.833,0.8314,0.8332,0.8302,0.8301,0.8306,0.8281,0.828,0.8255,0.8289,0.8288,0.8287,0,0.8548,0.8528,0.8495,0.8471,0.8462,0.8446,0.8422,0.8405,0.8383,0.8375,0.8359,0.8351,0.8327,0.8334,0.83,0.8313,0.83,0.829,0.8289,0.8285,0.8292,0.8274,0.8247,0.8242,0.8282,0.8282,0.8283,0,0.854,0.8505,0.848,0.847,0.8441,0.843,0.8417,0.8396,0.8382,0.8361,0.8351,0.8328,0.8315,0.8296,0.8281,0.8288,0.8248,0.8254,0.8239,0.8239,0.823,0.8231,0.8199,0.8225,0.8225,0.8225,0.8225,0,0.8518,0.8497,0.8476,0.846,0.8437,0.8423,0.8399,0.8386,0.8367,0.8348,0.834,0.8322,0.8304,0.8283,0.8272,0.8244,0.8239,0.8231,0.8228,0.823,0.8231,0.8221,0.8222,0.8224,0.8224,0.8224,0.8224,0,0.8505,0.849,0.8462,0.8436,0.8429,0.8413,0.8391,0.8374,0.8362,0.8337,0.8331,0.831,0.8285,0.8269,0.8237,0.8229,0.8198,0.8197,0.8206,0.8204,0.8189,0.819,0.8148,0.8141,0.8173,0.8173,0.8173,0,0.8491,0.8475,0.8448,0.8434,0.8422,0.84,0.8385,0.8371,0.8355,0.8329,0.8315,0.8289,0.8268,0.8228,0.821,0.8184,0.8181,0.8168,0.8177,0.818,0.8178,0.8179,0.8176,0.8166,0.8166,0.8166,0.8165,0,0.8468,0.8461,0.8441,0.8416,0.8399,0.8379,0.8359,0.8349,0.833,0.8313,0.8287,0.8271,0.8237,0.8211,0.8184,0.817,0.8163,0.8163,0.8157,0.816,0.8164,0.8159,0.82,0.8163,0.8164,0.8164,0.8164,0.8164,0.8454,0.8438,0.8416,0.8392,0.8375,0.8357,0.8339,0.8324,0.8302,0.8274,0.8267,0.8239,0.8216,0.8179,0.8164,0.8141,0.8143,0.8136,0.8134,0.8132,0.813,0.8169,0.8136,0.8136,0.8136,0.8136,0.8136,0,0.8429,0.8413,0.8392,0.8364,0.8345,0.8341,0.8319,0.8302,0.8278,0.8257,0.8236,0.8205,0.8179,0.8158,0.8131,0.8117,0.8113,0.811,0.811,0.8106,0.8132,0.8138,0.8113,0.8113,0.8113,0.8113,0.8113,0.8113,0.8413,0.8386,0.8376,0.8339,0.8324,0.8297,0.8284,0.8266,0.8249,0.8214,0.8193,0.8179,0.8158,0.8129,0.8104,0.8098,0.8088,0.8085,0.8078,0.8102,0.8105,0.8107,0.8113,0.8083,0.8083,0.8055,0.8054,0.8054]}]]